,,,PA_Meas_PMT16A,,PR_Meas_QMR101_102,,RH_Meas_QMH101,,SR_Meas_QMS101,,TA_Meas_QMH101,,GenWind,,GenWind,
date,time,status,PA,status,PR,status,RH,status,SR,status,TA,status,DirAvg,status,SpdAvg,
2010-03-06, 00:00:05,VALID,1002.81,VALID,0,VALID,90.5712,VALID,0,VALID,23.4866,VALID,164,VALID,1.73828,
2010-03-06, 00:01:04,VALID,1002.8,VALID,0,VALID,90.5788,VALID,0,VALID,23.4866,VALID,165,VALID,1.85078,
2010-03-06, 00:02:04,VALID,1002.81,VALID,0,VALID,90.6246,VALID,0,VALID,23.4866,VALID,163,VALID,1.56016,
2010-03-06, 00:03:04,VALID,1002.8,VALID,0,VALID,90.678,VALID,0,VALID,23.4866,VALID,165,VALID,1.525,
2010-03-06, 00:04:04,VALID,1002.77,VALID,0,VALID,90.7696,VALID,0,VALID,23.5256,VALID,172,VALID,1.41172,
2010-03-06, 00:05:04,VALID,1002.84,VALID,0,VALID,90.8077,VALID,0,VALID,23.5646,VALID,173,VALID,1.7168,
2010-03-06, 00:06:04,VALID,1002.83,VALID,0,VALID,90.762,VALID,0,VALID,23.6232,VALID,173,VALID,1.94648,
2010-03-06, 00:07:04,VALID,1002.82,VALID,0,VALID,90.4949,VALID,0,VALID,23.6427,VALID,185,VALID,1.61172,
2010-03-06, 00:08:04,VALID,1002.83,VALID,0,VALID,90.3728,VALID,0,VALID,23.7012,VALID,190,VALID,1.45547,
2010-03-06, 00:09:04,VALID,1002.82,VALID,0,VALID,90.2889,VALID,0,VALID,23.7793,VALID,179,VALID,1.45742,
2010-03-06, 00:10:04,VALID,1002.83,VALID,0,VALID,90.0677,VALID,0,VALID,23.8573,VALID,180,VALID,1.09141,
2010-03-06, 00:11:04,VALID,1002.79,VALID,0,VALID,89.6404,VALID,0,VALID,23.8768,VALID,164,VALID,0.772266,
2010-03-06, 00:12:04,VALID,1002.81,VALID,0,VALID,89.5565,VALID,0,VALID,23.8768,VALID,177,VALID,1.33711,
2010-03-06, 00:13:04,VALID,1002.81,VALID,0,VALID,89.3886,VALID,0,VALID,23.8963,VALID,182,VALID,1.64961,
2010-03-06, 00:14:04,VALID,1002.79,VALID,0,VALID,89.1445,VALID,0,VALID,23.9159,VALID,181,VALID,1.20859,
2010-03-06, 00:15:04,VALID,1002.8,VALID,0,VALID,88.9919,VALID,0,VALID,23.9354,VALID,181,VALID,1.16523,
2010-03-06, 00:16:04,VALID,1002.81,VALID,0,VALID,88.7706,VALID,0,VALID,23.9531,VALID,182,VALID,0.734766,
2010-03-06, 00:17:04,VALID,1002.81,VALID,0,VALID,88.4883,VALID,0,VALID,23.9726,VALID,179,VALID,1.0582,
2010-03-06, 00:18:04,VALID,1002.81,VALID,0,VALID,88.3205,VALID,0,VALID,23.9549,VALID,177,VALID,0.9125,
2010-03-06, 00:19:04,VALID,1002.8,VALID,0,VALID,88.1145,VALID,0,VALID,23.9354,VALID,173,VALID,0.401563,
2010-03-06, 00:20:04,VALID,1002.78,VALID,0,VALID,87.9771,VALID,0,VALID,23.8768,VALID,170,VALID,0,
2010-03-06, 00:21:04,VALID,1002.77,VALID,0,VALID,87.8856,VALID,0,VALID,23.8183,VALID,172,VALID,0.411719,
2010-03-06, 00:22:04,VALID,1002.78,VALID,0,VALID,88.4883,VALID,0,VALID,23.7207,VALID,172,VALID,0.291016,
2010-03-06, 00:23:04,VALID,1002.78,VALID,0,VALID,88.702,VALID,0,VALID,23.6817,VALID,172,VALID,0,
2010-03-06, 00:24:04,VALID,1002.78,VALID,0,VALID,88.9385,VALID,0,VALID,23.6427,VALID,172,VALID,0,
2010-03-06, 00:25:04,VALID,1002.75,VALID,0,VALID,89.1445,VALID,0,VALID,23.6036,VALID,172,VALID,0,
2010-03-06, 00:26:04,VALID,1002.76,VALID,0,VALID,89.2742,VALID,0,VALID,23.5646,VALID,172,VALID,0,
2010-03-06, 00:27:04,VALID,1002.75,VALID,0,VALID,89.1674,VALID,0,VALID,23.4866,VALID,172,VALID,0,
2010-03-06, 00:28:04,VALID,1002.74,VALID,0,VALID,89.2589,VALID,0,VALID,23.428,VALID,172,VALID,0,
2010-03-06, 00:29:04,VALID,1002.74,VALID,0,VALID,89.7167,VALID,0,VALID,23.389,VALID,172,VALID,0,
2010-03-06, 00:30:04,VALID,1002.72,VALID,0,VALID,89.9456,VALID,0,VALID,23.389,VALID,172,VALID,0,
2010-03-06, 00:31:04,VALID,1002.74,VALID,0,VALID,90.0448,VALID,0,VALID,23.3695,VALID,172,VALID,0,
2010-03-06, 00:32:04,VALID,1002.74,VALID,0,VALID,89.7167,VALID,0,VALID,23.311,VALID,172,VALID,0,
2010-03-06, 00:33:04,VALID,1002.72,VALID,0,VALID,89.8388,VALID,0,VALID,23.2329,VALID,172,VALID,0,
2010-03-06, 00:34:04,VALID,1002.7,VALID,0,VALID,90.0371,VALID,0,VALID,23.1744,VALID,172,VALID,0,
2010-03-06, 00:35:04,VALID,1002.71,VALID,0,VALID,90.3881,VALID,0,VALID,23.1744,VALID,172,VALID,0,
2010-03-06, 00:36:04,VALID,1002.72,VALID,0,VALID,90.6399,VALID,0,VALID,23.1744,VALID,172,VALID,0,
2010-03-06, 00:37:04,VALID,1002.71,VALID,0,VALID,90.7162,VALID,0,VALID,23.1939,VALID,172,VALID,0,
2010-03-06, 00:38:04,VALID,1002.69,VALID,0,VALID,90.6933,VALID,0,VALID,23.1549,VALID,172,VALID,0,
2010-03-06, 00:39:04,VALID,1002.67,VALID,0,VALID,90.7467,VALID,0,VALID,23.1354,VALID,172,VALID,0,
2010-03-06, 00:40:04,VALID,1002.64,VALID,0,VALID,90.7391,VALID,0,VALID,23.1159,VALID,172,VALID,0,
2010-03-06, 00:41:04,VALID,1002.67,VALID,0,VALID,90.6628,VALID,0,VALID,23.0573,VALID,172,VALID,0,
2010-03-06, 00:42:04,VALID,1002.67,VALID,0,VALID,90.7849,VALID,0.112286,VALID,23.0378,VALID,172,VALID,0.120703,
2010-03-06, 00:43:04,VALID,1002.63,VALID,0,VALID,90.8383,VALID,0,VALID,23.0183,VALID,148,VALID,0.357422,
2010-03-06, 00:44:04,VALID,1002.63,VALID,0,VALID,91.0671,VALID,0,VALID,22.9776,VALID,147,VALID,0.382031,
2010-03-06, 00:45:04,VALID,1002.58,VALID,0,VALID,90.9756,VALID,0,VALID,23.0166,VALID,147,VALID,0.0351563,
2010-03-06, 00:46:04,VALID,1002.61,VALID,0,VALID,91.2426,VALID,0,VALID,23.0573,VALID,148,VALID,0,
2010-03-06, 00:47:04,VALID,1002.57,VALID,0,VALID,91.2808,VALID,0,VALID,23.0964,VALID,148,VALID,0,
2010-03-06, 00:48:04,VALID,1002.56,VALID,0,VALID,91.1892,VALID,0,VALID,23.0946,VALID,148,VALID,0,
2010-03-06, 00:49:04,VALID,1002.53,VALID,0,VALID,91.1129,VALID,0,VALID,23.1159,VALID,148,VALID,0,
2010-03-06, 00:50:04,VALID,1002.54,VALID,0,VALID,91.0671,VALID,0,VALID,23.1159,VALID,148,VALID,0,
2010-03-06, 00:51:04,VALID,1002.53,VALID,0,VALID,91.0519,VALID,0,VALID,23.0964,VALID,148,VALID,0,
2010-03-06, 00:52:04,VALID,1002.51,VALID,0,VALID,91.0671,VALID,0,VALID,23.0769,VALID,148,VALID,0,
2010-03-06, 00:53:04,VALID,1002.48,VALID,0,VALID,90.8459,VALID,0,VALID,23.0361,VALID,148,VALID,0,
2010-03-06, 00:54:04,VALID,1002.52,VALID,0,VALID,90.9756,VALID,0,VALID,23.0183,VALID,148,VALID,0,
2010-03-06, 00:55:04,VALID,1002.5,VALID,0,VALID,91.0366,VALID,0,VALID,22.9793,VALID,148,VALID,0,
2010-03-06, 00:56:04,VALID,1002.48,VALID,0,VALID,91.0977,VALID,0,VALID,22.9793,VALID,148,VALID,0,
2010-03-06, 00:57:04,VALID,1002.5,VALID,0,VALID,91.1206,VALID,0,VALID,22.9598,VALID,148,VALID,0,
2010-03-06, 00:58:04,VALID,1002.46,VALID,0,VALID,91.0748,VALID,0,VALID,22.9403,VALID,148,VALID,0,
2010-03-06, 00:59:04,VALID,1002.46,VALID,0,VALID,91.1053,VALID,0,VALID,22.9208,VALID,148,VALID,0,
2010-03-06, 01:00:04,VALID,1002.5,VALID,0,VALID,91.09,VALID,0,VALID,22.8818,VALID,148,VALID,0,
2010-03-06, 01:01:04,VALID,1002.47,VALID,0,VALID,91.1206,VALID,0,VALID,22.8623,VALID,124,VALID,0.701563,
2010-03-06, 01:02:04,VALID,1002.43,VALID,0,VALID,91.5326,VALID,0,VALID,22.8818,VALID,116,VALID,0.956641,
2010-03-06, 01:03:04,VALID,1002.43,VALID,0,VALID,91.8759,VALID,0,VALID,22.9403,VALID,108,VALID,0.815625,
2010-03-06, 01:04:04,VALID,1002.42,VALID,0,VALID,92.0895,VALID,0,VALID,22.9776,VALID,97,VALID,1.13945,
2010-03-06, 01:05:04,VALID,1002.42,VALID,0,VALID,91.853,VALID,0,VALID,23.0378,VALID,83,VALID,1.21797,
2010-03-06, 01:06:04,VALID,1002.44,VALID,0,VALID,91.8454,VALID,0,VALID,23.0183,VALID,81,VALID,1.15391,
2010-03-06, 01:07:04,VALID,1002.41,VALID,0,VALID,91.9598,VALID,0,VALID,23.0378,VALID,83,VALID,0.876172,
2010-03-06, 01:08:04,VALID,1002.4,VALID,0,VALID,92.0285,VALID,0,VALID,23.0573,VALID,88,VALID,0.514063,
2010-03-06, 01:09:04,VALID,1002.4,VALID,0,VALID,91.9522,VALID,0,VALID,23.0361,VALID,89,VALID,0.491016,
2010-03-06, 01:10:04,VALID,1002.39,VALID,0,VALID,92.0361,VALID,0,VALID,23.0573,VALID,89,VALID,0.216016,
2010-03-06, 01:11:04,VALID,1002.41,VALID,0,VALID,92.0285,VALID,0,VALID,23.0573,VALID,89,VALID,0,
2010-03-06, 01:12:04,VALID,1002.41,VALID,0,VALID,92.0285,VALID,0,VALID,23.0964,VALID,89,VALID,0.0582031,
2010-03-06, 01:13:04,VALID,1002.37,VALID,0,VALID,91.9522,VALID,0,VALID,23.0361,VALID,89,VALID,0.250781,
2010-03-06, 01:14:04,VALID,1002.37,VALID,0,VALID,91.792,VALID,0,VALID,22.9971,VALID,89,VALID,0,
2010-03-06, 01:15:04,VALID,1002.35,VALID,0,VALID,91.6775,VALID,0,VALID,22.9598,VALID,89,VALID,0,
2010-03-06, 01:16:04,VALID,1002.36,VALID,0,VALID,91.5631,VALID,0,VALID,22.9013,VALID,88,VALID,0,
2010-03-06, 01:17:04,VALID,1002.35,VALID,0,VALID,91.7385,VALID,0,VALID,22.8623,VALID,88,VALID,0,
2010-03-06, 01:18:04,VALID,1002.36,VALID,0,VALID,91.8988,VALID,0,VALID,22.8818,VALID,88,VALID,0,
2010-03-06, 01:19:04,VALID,1002.33,VALID,0,VALID,91.9522,VALID,0,VALID,22.8818,VALID,88,VALID,0,
2010-03-06, 01:20:04,VALID,1002.35,VALID,0,VALID,91.8683,VALID,0,VALID,22.841,VALID,72,VALID,0,
2010-03-06, 01:21:04,VALID,1002.35,VALID,0,VALID,91.9674,VALID,0,VALID,22.8623,VALID,72,VALID,0,
2010-03-06, 01:22:04,VALID,1002.38,VALID,0,VALID,91.9674,VALID,0,VALID,22.802,VALID,15,VALID,0.403906,
2010-03-06, 01:23:04,VALID,1002.37,VALID,0,VALID,92.0361,VALID,0,VALID,22.8037,VALID,15,VALID,0.5875,
2010-03-06, 01:24:04,VALID,1002.38,VALID,0,VALID,92.0666,VALID,0,VALID,22.8037,VALID,15,VALID,0.335156,
2010-03-06, 01:25:04,VALID,1002.4,VALID,0,VALID,92.0437,VALID,0,VALID,22.7647,VALID,15,VALID,0.261719,
2010-03-06, 01:26:04,VALID,1002.41,VALID,0,VALID,92.1048,VALID,0,VALID,22.7647,VALID,15,VALID,0.157813,
2010-03-06, 01:27:04,VALID,1002.41,VALID,0,VALID,92.1353,VALID,0,VALID,22.7452,VALID,15,VALID,0,
2010-03-06, 01:28:04,VALID,1002.41,VALID,0,VALID,92.1887,VALID,0,VALID,22.7452,VALID,15,VALID,0,
2010-03-06, 01:29:04,VALID,1002.38,VALID,0,VALID,92.0971,VALID,0,VALID,22.7257,VALID,15,VALID,0,
2010-03-06, 01:30:04,VALID,1002.39,VALID,0,VALID,92.1963,VALID,0,VALID,22.7257,VALID,15,VALID,0,
2010-03-06, 01:31:04,VALID,1002.35,VALID,0,VALID,92.2497,VALID,0,VALID,22.7452,VALID,15,VALID,0,
2010-03-06, 01:32:04,VALID,1002.36,VALID,0,VALID,92.3184,VALID,0,VALID,22.7452,VALID,15,VALID,0,
2010-03-06, 01:33:04,VALID,1002.31,VALID,0,VALID,92.3718,VALID,0,VALID,22.7842,VALID,15,VALID,0,
2010-03-06, 01:34:04,VALID,1002.26,VALID,0,VALID,92.3566,VALID,0,VALID,22.7842,VALID,15,VALID,0,
2010-03-06, 01:35:04,VALID,1002.27,VALID,0,VALID,92.326,VALID,0,VALID,22.763,VALID,15,VALID,0,
2010-03-06, 01:36:04,VALID,1002.24,VALID,0,VALID,92.3794,VALID,0,VALID,22.7842,VALID,15,VALID,0,
2010-03-06, 01:37:04,VALID,1002.23,VALID,0,VALID,92.3566,VALID,0,VALID,22.7842,VALID,15,VALID,0,
2010-03-06, 01:38:04,VALID,1002.25,VALID,0,VALID,92.3794,VALID,0,VALID,22.7825,VALID,15,VALID,0,
2010-03-06, 01:39:04,VALID,1002.22,VALID,0,VALID,92.2879,VALID,0,VALID,22.8037,VALID,15,VALID,0.477344,
2010-03-06, 01:40:04,VALID,1002.22,VALID,0,VALID,91.9598,VALID,0,VALID,22.7257,VALID,15,VALID,0.464063,
2010-03-06, 01:41:04,VALID,1002.26,VALID,0,VALID,92.0666,VALID,0,VALID,22.6477,VALID,32,VALID,0.794922,
2010-03-06, 01:42:04,VALID,1002.25,VALID,0,VALID,92.5473,VALID,0,VALID,22.6867,VALID,46,VALID,0.823828,
2010-03-06, 01:43:04,VALID,1002.24,VALID,0,VALID,92.5549,VALID,0,VALID,22.7062,VALID,69,VALID,0.661719,
2010-03-06, 01:44:04,VALID,1002.24,VALID,0,VALID,92.4252,VALID,0,VALID,22.7062,VALID,69,VALID,0.586328,
2010-03-06, 01:45:04,VALID,1002.22,VALID,0,VALID,92.5015,VALID,0,VALID,22.7062,VALID,73,VALID,0.655078,
2010-03-06, 01:46:04,VALID,1002.21,VALID,0,VALID,92.6007,VALID,0,VALID,22.7257,VALID,73,VALID,0.528516,
2010-03-06, 01:47:04,VALID,1002.2,VALID,0,VALID,92.6694,VALID,0,VALID,22.7647,VALID,73,VALID,0.651563,
2010-03-06, 01:48:04,VALID,1002.2,VALID,0,VALID,92.6999,VALID,0,VALID,22.8232,VALID,92,VALID,0.787109,
2010-03-06, 01:49:04,VALID,1002.18,VALID,0,VALID,92.4786,VALID,0,VALID,22.8232,VALID,111,VALID,0.875781,
2010-03-06, 01:50:04,VALID,1002.16,VALID,0,VALID,92.2192,VALID,0.112286,VALID,22.8037,VALID,112,VALID,0.876172,
2010-03-06, 01:51:04,VALID,1002.16,VALID,0,VALID,92.2574,VALID,0,VALID,22.8427,VALID,112,VALID,0.823047,
2010-03-06, 01:52:04,VALID,1002.15,VALID,0,VALID,92.0361,VALID,0,VALID,22.8623,VALID,125,VALID,0.800391,
2010-03-06, 01:53:04,VALID,1002.15,VALID,0,VALID,91.7843,VALID,0,VALID,22.8623,VALID,125,VALID,0.661328,
2010-03-06, 01:54:04,VALID,1002.1,VALID,0,VALID,91.7233,VALID,0,VALID,22.8427,VALID,125,VALID,0.861328,
2010-03-06, 01:55:04,VALID,1002.12,VALID,0,VALID,91.7157,VALID,0,VALID,22.8623,VALID,125,VALID,0.885156,
2010-03-06, 01:56:04,VALID,1002.12,VALID,0,VALID,91.586,VALID,0,VALID,22.8623,VALID,125,VALID,0.695313,
2010-03-06, 01:57:04,VALID,1002.08,VALID,0,VALID,91.4181,VALID,0,VALID,22.8427,VALID,125,VALID,0.858594,
2010-03-06, 01:58:04,VALID,1002.08,VALID,0,VALID,91.5478,VALID,0,VALID,22.8427,VALID,136,VALID,0.736328,
2010-03-06, 01:59:04,VALID,1002.06,VALID,0,VALID,91.5097,VALID,0,VALID,22.8427,VALID,142,VALID,0.499609,
2010-03-06, 02:00:04,VALID,1002.05,VALID,0,VALID,91.5173,VALID,0,VALID,22.8427,VALID,161,VALID,0.559375,
2010-03-06, 02:01:04,VALID,1002.06,VALID,0,VALID,91.4715,VALID,0.112286,VALID,22.8427,VALID,161,VALID,0.651563,
2010-03-06, 02:02:04,VALID,1002.05,VALID,0,VALID,91.5326,VALID,0,VALID,22.8623,VALID,162,VALID,0.857813,
2010-03-06, 02:03:04,VALID,1002.04,VALID,0,VALID,91.4791,VALID,0,VALID,22.8818,VALID,173,VALID,0.598828,
2010-03-06, 02:04:04,VALID,1002.04,VALID,0,VALID,91.4105,VALID,0,VALID,22.9208,VALID,202,VALID,0.716016,
2010-03-06, 02:05:04,VALID,1002.04,VALID,0,VALID,91.2121,VALID,0,VALID,22.9793,VALID,198,VALID,0.838672,
2010-03-06, 02:06:04,VALID,1002.05,VALID,0,VALID,90.9146,VALID,0,VALID,23.0573,VALID,178,VALID,0.239844,
2010-03-06, 02:07:04,VALID,1002.04,VALID,0,VALID,90.4797,VALID,0,VALID,23.0573,VALID,178,VALID,0,
2010-03-06, 02:08:04,VALID,1002.04,VALID,0,VALID,90.35,VALID,0,VALID,23.0183,VALID,178,VALID,0,
2010-03-06, 02:09:04,VALID,1002.05,VALID,0,VALID,90.2584,VALID,0,VALID,22.9988,VALID,178,VALID,0.00429688,
2010-03-06, 02:10:04,VALID,1002.05,VALID,0,VALID,90.3576,VALID,0,VALID,22.9793,VALID,178,VALID,0.195703,
2010-03-06, 02:11:04,VALID,1002.07,VALID,0,VALID,90.411,VALID,0.112286,VALID,22.9598,VALID,178,VALID,0.188672,
2010-03-06, 02:12:04,VALID,1002.07,VALID,0,VALID,90.6094,VALID,0,VALID,22.9581,VALID,178,VALID,0.179688,
2010-03-06, 02:13:04,VALID,1002.1,VALID,0,VALID,90.4873,VALID,0,VALID,22.9598,VALID,178,VALID,0.178516,
2010-03-06, 02:14:04,VALID,1002.1,VALID,0,VALID,90.2966,VALID,0.112286,VALID,22.8995,VALID,178,VALID,0.293359,
2010-03-06, 02:15:04,VALID,1002.09,VALID,0,VALID,90.3576,VALID,0,VALID,22.8427,VALID,253,VALID,0.527344,
2010-03-06, 02:16:04,VALID,1002.13,VALID,0,VALID,90.6475,VALID,0,VALID,22.8232,VALID,293,VALID,0.609766,
2010-03-06, 02:17:04,VALID,1002.13,VALID,0,VALID,90.8993,VALID,0,VALID,22.8232,VALID,293,VALID,0.326562,
2010-03-06, 02:18:04,VALID,1002.18,VALID,0,VALID,90.9069,VALID,0.112286,VALID,22.802,VALID,293,VALID,0.160938,
2010-03-06, 02:19:04,VALID,1002.16,VALID,0,VALID,90.9222,VALID,0.112286,VALID,22.8037,VALID,293,VALID,0,
2010-03-06, 02:20:04,VALID,1002.19,VALID,0,VALID,90.9222,VALID,0,VALID,22.7647,VALID,293,VALID,0,
2010-03-06, 02:21:04,VALID,1002.2,VALID,0,VALID,90.7391,VALID,0,VALID,22.7274,VALID,293,VALID,0,
2010-03-06, 02:22:04,VALID,1002.22,VALID,0,VALID,90.6628,VALID,0,VALID,22.6689,VALID,293,VALID,0,
2010-03-06, 02:23:04,VALID,1002.22,VALID,0,VALID,91.2197,VALID,0,VALID,22.6494,VALID,166,VALID,0,
2010-03-06, 02:24:04,VALID,1002.21,VALID,0,VALID,91.5326,VALID,0,VALID,22.6884,VALID,144,VALID,0.937109,
2010-03-06, 02:25:04,VALID,1002.24,VALID,0,VALID,91.4563,VALID,0,VALID,22.7079,VALID,144,VALID,1.31406,
2010-03-06, 02:26:04,VALID,1002.24,VALID,0,VALID,91.4028,VALID,0,VALID,22.7469,VALID,157,VALID,1.26719,
2010-03-06, 02:27:04,VALID,1002.24,VALID,0,VALID,91.2197,VALID,0,VALID,22.7647,VALID,160,VALID,1.30273,
2010-03-06, 02:28:04,VALID,1002.26,VALID,0,VALID,91.09,VALID,0,VALID,22.825,VALID,164,VALID,1.1,
2010-03-06, 02:29:04,VALID,1002.25,VALID,0,VALID,90.9527,VALID,0,VALID,22.864,VALID,169,VALID,0.819531,
2010-03-06, 02:30:04,VALID,1002.28,VALID,0,VALID,90.7162,VALID,0,VALID,22.8427,VALID,169,VALID,0.826563,
2010-03-06, 02:31:04,VALID,1002.28,VALID,0,VALID,90.6551,VALID,0,VALID,22.8215,VALID,169,VALID,0.729688,
2010-03-06, 02:32:04,VALID,1002.29,VALID,0,VALID,90.678,VALID,0,VALID,22.8623,VALID,169,VALID,0.614062,
2010-03-06, 02:33:04,VALID,1002.31,VALID,0,VALID,90.6551,VALID,0,VALID,22.8818,VALID,182,VALID,0.660156,
2010-03-06, 02:34:04,VALID,1002.31,VALID,0,VALID,90.5407,VALID,0,VALID,22.88,VALID,185,VALID,0.461719,
2010-03-06, 02:35:04,VALID,1002.34,VALID,0,VALID,90.4186,VALID,0,VALID,22.8818,VALID,185,VALID,0.0425781,
2010-03-06, 02:36:04,VALID,1002.35,VALID,0,VALID,90.0829,VALID,0,VALID,22.8427,VALID,185,VALID,0.00078125,
2010-03-06, 02:37:04,VALID,1002.35,VALID,0,VALID,90.0982,VALID,0,VALID,22.7842,VALID,193,VALID,0,
2010-03-06, 02:38:04,VALID,1002.37,VALID,0,VALID,90.3271,VALID,0,VALID,22.7842,VALID,193,VALID,0,
2010-03-06, 02:39:04,VALID,1002.35,VALID,0,VALID,90.4949,VALID,0,VALID,22.7842,VALID,293,VALID,0.0285156,
2010-03-06, 02:40:04,VALID,1002.33,VALID,0,VALID,90.35,VALID,0,VALID,22.7647,VALID,293,VALID,0.190234,
2010-03-06, 02:41:04,VALID,1002.3,VALID,0,VALID,90.2737,VALID,0,VALID,22.7452,VALID,293,VALID,0,
2010-03-06, 02:42:04,VALID,1002.28,VALID,0,VALID,90.3347,VALID,0,VALID,22.7257,VALID,293,VALID,0,
2010-03-06, 02:43:04,VALID,1002.26,VALID,0,VALID,90.3728,VALID,0,VALID,22.7062,VALID,293,VALID,0,
2010-03-06, 02:44:04,VALID,1002.24,VALID,0,VALID,90.2431,VALID,0,VALID,22.6672,VALID,293,VALID,0,
2010-03-06, 02:45:04,VALID,1002.21,VALID,0,VALID,90.4186,VALID,0,VALID,22.6477,VALID,293,VALID,0,
2010-03-06, 02:46:04,VALID,1002.17,VALID,0,VALID,90.5865,VALID,0,VALID,22.6477,VALID,293,VALID,0,
2010-03-06, 02:47:04,VALID,1002.18,VALID,0,VALID,90.6933,VALID,0,VALID,22.6477,VALID,293,VALID,0,
2010-03-06, 02:48:04,VALID,1002.18,VALID,0,VALID,90.823,VALID,0,VALID,22.6477,VALID,293,VALID,0,
2010-03-06, 02:49:04,VALID,1002.2,VALID,0,VALID,90.9069,VALID,0.112286,VALID,22.6069,VALID,293,VALID,0,
2010-03-06, 02:50:04,VALID,1002.17,VALID,0,VALID,90.9527,VALID,0,VALID,22.6282,VALID,293,VALID,0,
2010-03-06, 02:51:04,VALID,1002.16,VALID,0,VALID,91.0137,VALID,0,VALID,22.6282,VALID,293,VALID,0,
2010-03-06, 02:52:04,VALID,1002.14,VALID,0,VALID,91.1053,VALID,0,VALID,22.6069,VALID,293,VALID,0,
2010-03-06, 02:53:04,VALID,1002.14,VALID,0,VALID,91.1892,VALID,0,VALID,22.6282,VALID,293,VALID,0,
2010-03-06, 02:54:04,VALID,1002.14,VALID,0,VALID,91.2655,VALID,0,VALID,22.6087,VALID,293,VALID,0.0871094,
2010-03-06, 02:55:04,VALID,1002.11,VALID,0,VALID,91.3266,VALID,0,VALID,22.6087,VALID,293,VALID,0.424609,
2010-03-06, 02:56:04,VALID,1002.15,VALID,0,VALID,91.4181,VALID,0,VALID,22.6087,VALID,293,VALID,0.471094,
2010-03-06, 02:57:04,VALID,1002.13,VALID,0,VALID,91.4791,VALID,0,VALID,22.6087,VALID,293,VALID,0.5,
2010-03-06, 02:58:04,VALID,1002.11,VALID,0,VALID,91.4868,VALID,0,VALID,22.5892,VALID,293,VALID,0.325781,
2010-03-06, 02:59:04,VALID,1002.09,VALID,0,VALID,91.0671,VALID,0.112286,VALID,22.5306,VALID,293,VALID,0,
2010-03-06, 03:00:04,VALID,1002.1,VALID,0,VALID,91.2197,VALID,0,VALID,22.4331,VALID,293,VALID,0,
2010-03-06, 03:01:04,VALID,1002.12,VALID,0,VALID,91.5326,VALID,0,VALID,22.4348,VALID,293,VALID,0,
2010-03-06, 03:02:04,VALID,1002.1,VALID,0,VALID,91.7996,VALID,0,VALID,22.4543,VALID,293,VALID,0,
2010-03-06, 03:03:04,VALID,1002.09,VALID,0,VALID,91.9751,VALID,0,VALID,22.4933,VALID,293,VALID,0.0539063,
2010-03-06, 03:04:04,VALID,1002.08,VALID,0,VALID,91.998,VALID,0,VALID,22.4933,VALID,318,VALID,0.644141,
2010-03-06, 03:05:04,VALID,1002.1,VALID,0,VALID,91.9751,VALID,0,VALID,22.5128,VALID,85,VALID,0.903125,
2010-03-06, 03:06:04,VALID,1002.06,VALID,0,VALID,92.0132,VALID,0,VALID,22.5519,VALID,77,VALID,0.774609,
2010-03-06, 03:07:04,VALID,1002.08,VALID,0,VALID,91.9751,VALID,0,VALID,22.5714,VALID,77,VALID,0.636328,
2010-03-06, 03:08:04,VALID,1002.05,VALID,0,VALID,91.8606,VALID,0,VALID,22.5501,VALID,77,VALID,0.358594,
2010-03-06, 03:09:04,VALID,1002.04,VALID,0,VALID,91.7614,VALID,0,VALID,22.5519,VALID,71,VALID,0.485156,
2010-03-06, 03:10:04,VALID,1002.03,VALID,0,VALID,91.5554,VALID,0,VALID,22.5128,VALID,40,VALID,0.780859,
2010-03-06, 03:11:04,VALID,1002.05,VALID,0,VALID,91.9598,VALID,0,VALID,22.5128,VALID,40,VALID,0.744531,
2010-03-06, 03:12:04,VALID,1002.07,VALID,0,VALID,92.2497,VALID,0,VALID,22.5714,VALID,40,VALID,0.678516,
2010-03-06, 03:13:04,VALID,1002.07,VALID,0,VALID,92.2421,VALID,0,VALID,22.6104,VALID,40,VALID,0.5375,
2010-03-06, 03:14:04,VALID,1002.08,VALID,0,VALID,92.1734,VALID,0,VALID,22.6494,VALID,40,VALID,0.429297,
2010-03-06, 03:15:04,VALID,1002.05,VALID,0,VALID,91.9064,VALID,0,VALID,22.6299,VALID,40,VALID,0.324219,
2010-03-06, 03:16:04,VALID,1002.01,VALID,0,VALID,91.6012,VALID,0,VALID,22.5501,VALID,40,VALID,0.106641,
2010-03-06, 03:17:04,VALID,1002.03,VALID,0,VALID,91.5478,VALID,0,VALID,22.4509,VALID,40,VALID,0.0292969,
2010-03-06, 03:18:04,VALID,1002.02,VALID,0,VALID,91.8683,VALID,0,VALID,22.4509,VALID,40,VALID,0.462109,
2010-03-06, 03:19:04,VALID,1002.06,VALID,0,VALID,92.0209,VALID,0.112286,VALID,22.4916,VALID,40,VALID,0.403516,
2010-03-06, 03:20:04,VALID,1002.08,VALID,0,VALID,92.0514,VALID,0,VALID,22.5111,VALID,40,VALID,0.391016,
2010-03-06, 03:21:04,VALID,1002.09,VALID,0,VALID,91.9674,VALID,0,VALID,22.4704,VALID,40,VALID,0.405859,
2010-03-06, 03:22:04,VALID,1002.09,VALID,0,VALID,91.9522,VALID,0,VALID,22.4314,VALID,40,VALID,0.33125,
2010-03-06, 03:23:04,VALID,1002.11,VALID,0,VALID,91.647,VALID,0,VALID,22.3941,VALID,40,VALID,0.319531,
2010-03-06, 03:24:04,VALID,1002.12,VALID,0,VALID,91.5478,VALID,0.112286,VALID,22.3161,VALID,40,VALID,0.353906,
2010-03-06, 03:25:04,VALID,1002.11,VALID,0,VALID,91.8377,VALID,0,VALID,22.2966,VALID,40,VALID,0.326172,
2010-03-06, 03:26:04,VALID,1002.12,VALID,0,VALID,91.8683,VALID,0,VALID,22.2771,VALID,40,VALID,0.278516,
2010-03-06, 03:27:04,VALID,1002.09,VALID,0,VALID,92.0819,VALID,0,VALID,22.2966,VALID,40,VALID,0.0246094,
2010-03-06, 03:28:04,VALID,1002.07,VALID,0,VALID,92.1124,VALID,0,VALID,22.2949,VALID,40,VALID,0,
2010-03-06, 03:29:04,VALID,1002.07,VALID,0,VALID,92.0437,VALID,0,VALID,22.2966,VALID,40,VALID,0,
2010-03-06, 03:30:04,VALID,1002.07,VALID,0,VALID,92.1582,VALID,0,VALID,22.3161,VALID,40,VALID,0,
2010-03-06, 03:31:04,VALID,1002.08,VALID,0,VALID,92.2192,VALID,0,VALID,22.3551,VALID,40,VALID,0,
2010-03-06, 03:32:04,VALID,1002.09,VALID,0,VALID,92.2879,VALID,0,VALID,22.3356,VALID,40,VALID,0.265234,
2010-03-06, 03:33:04,VALID,1002.15,VALID,0,VALID,92.4481,VALID,0,VALID,22.3746,VALID,40,VALID,0.298828,
2010-03-06, 03:34:04,VALID,1002.13,VALID,0,VALID,92.5702,VALID,0,VALID,22.4331,VALID,40,VALID,0.340625,
2010-03-06, 03:35:04,VALID,1002.17,VALID,0,VALID,92.5702,VALID,0,VALID,22.4526,VALID,40,VALID,0.242969,
2010-03-06, 03:36:04,VALID,1002.19,VALID,0,VALID,92.4405,VALID,0,VALID,22.4721,VALID,40,VALID,0.132031,
2010-03-06, 03:37:04,VALID,1002.17,VALID,0,VALID,92.3947,VALID,0,VALID,22.4916,VALID,40,VALID,0,
2010-03-06, 03:38:04,VALID,1002.2,VALID,0,VALID,92.2955,VALID,0,VALID,22.4721,VALID,40,VALID,0,
2010-03-06, 03:39:04,VALID,1002.2,VALID,0,VALID,92.265,VALID,0,VALID,22.4704,VALID,40,VALID,0,
2010-03-06, 03:40:04,VALID,1002.22,VALID,0,VALID,92.265,VALID,0,VALID,22.4721,VALID,40,VALID,0,
2010-03-06, 03:41:04,VALID,1002.23,VALID,0,VALID,92.2421,VALID,0,VALID,22.4721,VALID,40,VALID,0,
2010-03-06, 03:42:04,VALID,1002.24,VALID,0,VALID,92.265,VALID,0,VALID,22.4899,VALID,40,VALID,0,
2010-03-06, 03:43:04,VALID,1002.25,VALID,0,VALID,92.2879,VALID,0,VALID,22.4899,VALID,40,VALID,0,
2010-03-06, 03:44:04,VALID,1002.3,VALID,0,VALID,92.3184,VALID,0,VALID,22.5306,VALID,40,VALID,0,
2010-03-06, 03:45:04,VALID,1002.29,VALID,0,VALID,92.265,VALID,0,VALID,22.5501,VALID,40,VALID,0,
2010-03-06, 03:46:04,VALID,1002.35,VALID,0,VALID,92.204,VALID,0,VALID,22.5306,VALID,40,VALID,0,
2010-03-06, 03:47:04,VALID,1002.35,VALID,0,VALID,92.2497,VALID,0,VALID,22.5306,VALID,40,VALID,0,
2010-03-06, 03:48:04,VALID,1002.36,VALID,0,VALID,92.326,VALID,0,VALID,22.5501,VALID,40,VALID,0.0164062,
2010-03-06, 03:49:04,VALID,1002.39,VALID,0,VALID,92.4328,VALID,0,VALID,22.5679,VALID,40,VALID,0.167578,
2010-03-06, 03:50:04,VALID,1002.36,VALID,0,VALID,92.2116,VALID,0,VALID,22.5501,VALID,40,VALID,0.0257812,
2010-03-06, 03:51:04,VALID,1002.35,VALID,0,VALID,92.2421,VALID,0,VALID,22.5289,VALID,40,VALID,0,